Location: Chuathbaluk
(61.5726°N, 159.2454°W)
Time: 14:08:08
(UTC+00:00)

XW-2F - Pass Details

Date: 19 January 2021
Orbit: 500 x 520 km, 97.5° (Epoch: 01 March)

Event Time Altitude Azimuth Distance (km) Brightness Sun altitude
Rises 17:54:57 0° 14° (NNE) 2,659 ? -10.0°
Reaches altitude 10° 17:57:07 10° 8° (N) 1,769 ? -9.8°
Maximum altitude 18:00:45 44° 296° (WNW) 731 ? -9.4°
Drops below altitude 10° 18:04:23 10° 224° (SW) 1,762 ? -9.0°
Sets 18:06:32 0° 218° (SW) 2,647 ? -8.8°
